Location: NJAA Observatory
(40.6819°N, 74.8979°W)
Time: 20:37:54
(UTC-05:00)

Iridium 56 - Visible Passes

Search period start: 21 January 2017 00:00
Search period end: 31 January 2017 00:00
Orbit: 776 x 779 km, 86.4° (Epoch: 21 January)

Date Brightness Start Highest point End Pass type
(mag) Time Alt. Az. Time Alt. Az. Time Alt. Az.
21 Jan 7.2 18:12:01 10° ESE 18:13:15 14° ESE 18:13:15 14° ESE visible
21 Jan 6.6 19:50:24 10° SSW 19:53:51 39° SW 19:53:51 39° SW visible
22 Jan 7.1 06:20:40 10° NNE 06:25:31 38° E 06:30:21 10° SSE visible
22 Jan 5.3 19:16:44 10° S 19:21:56 82° E 19:22:37 67° NNE visible
22 Jan 8.5 21:01:49 10° W 21:03:17 11° WNW 21:03:17 11° WNW visible
23 Jan 8.1 05:47:50 10° NNE 05:51:47 21° ENE 05:55:43 10° SE visible
23 Jan 5.8 18:43:36 10° SSE 18:48:30 44° E 18:53:26 10° NNE visible
23 Jan 7.8 20:25:34 10° SW 20:29:26 21° WNW 20:33:19 10° NNW visible
24 Jan 8.6 05:16:09 10° NE 05:17:53 12° ENE 05:19:37 10° E visible
24 Jan 6.5 18:11:05 10° SE 18:15:12 24° E 18:19:20 10° NNE visible
24 Jan 6.9 19:50:52 10° SSW 19:55:40 37° W 20:00:31 10° NNW visible
25 Jan 6.3 06:20:35 10° N 06:25:43 56° E 06:30:49 10° SSE visible
25 Jan 7.1 17:39:39 10° ESE 17:42:01 13° ENE 17:44:23 10° NE visible
25 Jan 5.7 19:16:52 10° S 19:22:03 69° W 19:27:16 10° N visible
26 Jan 7.5 05:47:27 10° NNE 05:52:03 30° E 05:56:36 10° SE visible
26 Jan 5.4 18:43:25 10° S 18:48:33 64° E 18:53:43 10° N visible
26 Jan 8.3 20:26:57 10° WSW 20:29:45 14° WNW 20:32:34 10° NW visible
27 Jan 8.4 05:14:54 10° NE 05:18:14 17° ENE 05:21:34 10° ESE visible
27 Jan 6.1 18:10:30 10° SSE 18:15:10 35° E 18:19:51 10° NNE visible
27 Jan 7.5 19:51:35 10° SW 19:55:55 26° WNW 20:00:15 10° NNW visible
28 Jan 5.7 06:20:36 10° N 06:25:51 81° E 06:31:04 10° S visible
28 Jan 6.8 17:38:19 10° SE 17:41:54 19° E 17:45:31 10° NE visible
28 Jan 6.5 19:17:12 10° SSW 19:22:12 47° W 19:27:15 10° N visible
29 Jan 6.8 05:47:17 10° N 05:52:16 43° E 05:57:12 10° SSE visible
29 Jan 5.5 18:43:26 10° S 18:48:38 88° W 18:53:52 10° N visible
30 Jan 7.8 05:14:20 10° NNE 05:18:32 24° ENE 05:22:43 10° SE visible
30 Jan 5.7 18:10:10 10° SSE 18:15:10 50° E 18:20:12 10° NNE visible
30 Jan 8.1 19:52:38 10° WSW 19:56:12 18° WNW 19:59:47 10° NNW visible
